Westfield, MA

6:30 PM EDT on August 30, 2015 (GMT -0400)
Barnes Municipal | | Change Station
CLOSE
Current Station
Airport
Location: Westfield,
Elevation: 269 ft
Nearby Weather Stations

Elev 269 ft 42.16 °N, 72.71 °W | Updated 37 minutes ago

Partly Cloudy
Partly Cloudy
83 °F
Feels Like 84 °F
N
6
Wind Variable Wind from WNW

Today
High -- | Low -- °F
--% Chance of Precip.
Yesterday
High -- | Low -- °F
Precip. -- in
6:13 AM 7:28 PM
Full, 98% visible
Pressure 30.00 in
Visibility 10.0 miles
Clouds Few 9000 ft
Few 11000 ft
Heat Index 84 °F
Dew Point 62 °F
Humidity 49%
Rainfall 0.00 in
Snow Depth Not available.
UV 1 out of 12
Pollen 10.00 out of 12
Air Quality Not available.
Flu Activity Not available.
METAR KBAF 302153Z 30005KT 10SM FEW090 FEW110 28/17 A3000 RMK AO2 SLP157 T02830167
Pressure 30.00 in
Visibility 10.0 miles
Clouds Few 9000 ft
Few 11000 ft
Heat Index 84 °F
Dew Point 62 °F
Humidity 49%
Rainfall 0.00 in
Snow Depth Not available.
UV 1 out of 12
Pollen 10.00 out of 12
Air Quality Not available.
Flu Activity Not available.
METAR KBAF 302153Z 30005KT 10SM FEW090 FEW110 28/17 A3000 RMK AO2 SLP157 T02830167

10-Day Weather Forecast

×

Almanac

Astronomy

Aug. 30, 2015 Rise Set
Actual Time
Civil Twilight
Nautical Twilight
Astronomical Twilight
Moon
Length of Visible Light
Length of Day
Tomorrow will be .
, % of the Moon is Illuminated

Today's Extremes

State Highs State Lows

Community

WunderPhotos

Upload Photos

1,851,074 photos uploaded!

WunderBlogs® & News

Nearby

Air Quality

  Air Quality AQ Index Pollutant
Not available.

Snow Depth

Station Depth Elevation

Earthquake Activity

City Distance Mag. Time & Date
Minimum magnitude displayed is 2.5.

Coastal Water Temperatures

Place Temperature

Stations

Nearby Weather Stations

Station Location Temp. Windchill Dew Point Humidity Wind Precip. Elev Updated Type